TimeMST,TemperatureF,Dew PointF,Humidity,Sea Level PressureIn,VisibilityMPH,Wind Direction,Wind SpeedMPH,Gust SpeedMPH,PrecipitationIn,Events,Conditions,WindDirDegrees,DateUTC
12:53 AM,64.0,60.1,87,29.93,10.0,Calm,Calm,-,N/A,,Clear,0,2013-09-02 07:53:00
1:53 AM,63.0,60.1,90,29.92,10.0,South,5.8,-,N/A,,Clear,190,2013-09-02 08:53:00
2:53 AM,63.0,59.0,87,29.91,10.0,Calm,Calm,-,N/A,,Clear,0,2013-09-02 09:53:00
3:53 AM,62.1,57.9,86,29.95,10.0,Calm,Calm,-,0.01,,Clear,0,2013-09-02 10:53:00
4:53 AM,60.1,57.9,93,29.96,10.0,Calm,Calm,-,N/A,,Clear,0,2013-09-02 11:53:00
5:53 AM,59.0,57.0,93,29.96,10.0,SSW,4.6,-,N/A,,Clear,200,2013-09-02 12:53:00
6:53 AM,61.0,57.9,90,29.98,10.0,SSW,3.5,-,N/A,,Clear,210,2013-09-02 13:53:00
7:53 AM,66.9,60.1,79,29.99,10.0,Calm,Calm,-,N/A,,Clear,0,2013-09-02 14:53:00
8:53 AM,71.1,63.0,75,29.99,10.0,Calm,Calm,-,N/A,,Clear,0,2013-09-02 15:53:00
9:53 AM,75.9,63.0,64,29.98,10.0,North,3.5,-,N/A,,Partly Cloudy,360,2013-09-02 16:53:00
10:53 AM,80.1,61.0,52,29.96,10.0,Variable,4.6,-,N/A,,Scattered Clouds,0,2013-09-02 17:53:00
11:53 AM,82.0,57.9,44,29.95,10.0,Calm,Calm,-,N/A,,Clear,0,2013-09-02 18:53:00
12:53 PM,82.0,57.9,44,29.93,10.0,NNW,3.5,-,N/A,,Partly Cloudy,330,2013-09-02 19:53:00
1:53 PM,82.9,55.9,39,29.91,10.0,Calm,Calm,-,N/A,,Scattered Clouds,0,2013-09-02 20:53:00
2:53 PM,84.0,54.0,35,29.88,10.0,ENE,4.6,-,N/A,,Scattered Clouds,60,2013-09-02 21:53:00
3:53 PM,84.0,55.0,37,29.86,10.0,SE,3.5,-,N/A,,Scattered Clouds,140,2013-09-02 22:53:00
4:53 PM,79.0,55.0,44,29.88,10.0,SSW,3.5,-,N/A,Thunderstorm,Thunderstorm,210,2013-09-02 23:53:00
5:31 PM,75.2,57.2,53,30.11,10.0,West,8.1,-,N/A,,Scattered Clouds,270,2013-09-03 00:31:00
5:53 PM,75.2,60.8,61,29.90,10.0,South,5.8,-,N/A,,Scattered Clouds,170,2013-09-03 00:53:00
6:53 PM,77.0,57.9,52,29.89,10.0,Variable,4.6,-,N/A,,Mostly Cloudy,0,2013-09-03 01:53:00
7:53 PM,75.0,57.0,53,29.90,10.0,Calm,Calm,-,N/A,,Clear,0,2013-09-03 02:53:00
8:53 PM,72.0,61.0,68,29.91,10.0,Calm,Calm,-,N/A,,Scattered Clouds,0,2013-09-03 03:53:00
9:53 PM,71.1,61.0,70,29.91,10.0,SW,5.8,-,N/A,,Partly Cloudy,220,2013-09-03 04:53:00
10:53 PM,70.0,61.0,73,29.90,10.0,South,6.9,-,N/A,,Mostly Cloudy,180,2013-09-03 05:53:00
11:53 PM,68.0,60.1,76,29.91,10.0,WSW,4.6,-,N/A,,Clear,240,2013-09-03 06:53:00